Angoon, AK

4:04 PM AKST on December 06, 2019 (GMT -0900)
Angoon

Weather History for PAGN - May, 2019

Change the Weather History Date:

Thursday, May 9, 2019

  Actual Average (WUND) Record (WUND)
Temperature  
Mean Temperature 50 °F -  
Max Temperature 57 °F - - (-1)
Min Temperature 44 °F - - (-1)
Degree Days  
Heating Degree Days 14    
Moisture  
Dew Point 46 °F    
Average Humidity 90    
Maximum Humidity 100    
Minimum Humidity 72    
Precipitation  
Precipitation 0.00 in - - ()
Sea Level Pressure  
Sea Level Pressure 30.31 in    
Wind  
Wind Speed 1 mph (South)    
Max Wind Speed 5 mph    
Max Gust Speed -    
Visibility 7 miles    
Events Fog , Rain    
Averages and records for this station are not official NWS values.
T = Trace of Precipitation, MM = Missing Value Source: NWS Daily Summary

Daily Weather History Graph

Daily Weather History Graph

Search for Another Location

Airport or City:

Astronomy

May. 09, 2019 Rise Set
Actual Time 4:49 AM AKDT 9:01 PM AKDT
Civil Twilight 3:58 AM AKDT 9:52 PM AKDT
Nautical Twilight 2:40 AM AKDT 11:12 PM AKDT
Astronomical Twilight 1:27 AM AKDT Sun does not rise
Moon 8:30 AM AKDT (5/9) 1:29 AM AKDT (5/9)
Length of Visible Light 17h 53m
Length of Day
16h 11m
Waxing Crescent, 26% of the Moon is Illuminated
May 9
Waxing Crescent
May 11
First Quarter
May 18
Full
May 26
Last Quarter
Jun 3
New

Hourly Weather History & Observations

Time (AKDT) Temp. Windchill Dew Point Humidity Pressure Visibility Wind Dir Wind Speed Gust Speed Precip Events Conditions
12:56 AM 46.0 °F - 45.0 °F 96% 30.40 in 10.0 mi Calm Calm - 0.00 in   Overcast
1:56 AM 46.0 °F - 45.0 °F 96% 30.38 in 10.0 mi Calm Calm - N/A   Overcast
2:21 AM 46.4 °F - 44.6 °F 93% 30.40 in 10.0 mi Calm Calm - N/A   Overcast
2:31 AM 46.4 °F - 44.6 °F 93% 30.40 in 10.0 mi Calm Calm - N/A   Overcast
2:56 AM 46.0 °F - 45.0 °F 96% 30.37 in 10.0 mi Calm Calm - N/A   Overcast
3:05 AM 46.4 °F - 44.6 °F 93% 30.40 in 10.0 mi Calm Calm - N/A   Overcast
3:52 AM 46.4 °F 45.2 °F 44.6 °F 93% 30.40 in 7.0 mi Variable 3.5 mph - 0.00 in Rain Light Rain
3:56 AM 46.0 °F 43.9 °F 45.0 °F 96% 30.37 in 6.0 mi Variable 4.6 mph - 0.00 in Rain Light Rain
4:54 AM 46.4 °F - 44.6 °F 93% 30.38 in 5.0 mi Calm Calm - 0.00 in   Overcast
5:00 AM 46.4 °F - 44.6 °F 93% 30.38 in 1.8 mi Calm Calm - N/A   Overcast
5:13 AM 46.4 °F - 44.6 °F 93% 30.37 in 3.0 mi Calm Calm - N/A   Overcast
5:18 AM 46.4 °F - 44.6 °F 93% 30.37 in 1.8 mi Calm Calm - N/A   Overcast
5:26 AM 46.4 °F - 44.6 °F 93% 30.37 in 0.8 mi Calm Calm - N/A   Overcast
5:38 AM 46.4 °F - 44.6 °F 93% 30.37 in 0.5 mi Calm Calm - N/A Fog Fog
5:46 AM 46.4 °F - 44.6 °F 93% 30.37 in 1.0 mi Calm Calm - N/A   Overcast
5:56 AM 46.0 °F - 45.0 °F 96% 30.34 in 3.0 mi Calm Calm - N/A   Overcast
6:16 AM 46.4 °F - 44.6 °F 93% 30.37 in 1.8 mi Calm Calm - N/A   Overcast
6:21 AM 44.6 °F - 44.6 °F 100% 30.37 in 0.8 mi Calm Calm - N/A   Overcast
6:30 AM 44.6 °F - 44.6 °F 100% 30.37 in 0.5 mi Calm Calm - N/A Fog Fog
6:34 AM 46.4 °F - 44.6 °F 93% 30.37 in 1.0 mi Calm Calm - N/A   Overcast
6:43 AM 46.4 °F - 46.4 °F 100% 30.37 in 2.0 mi Calm Calm - N/A   Overcast
6:56 AM 46.0 °F - 46.0 °F 100% 30.34 in 3.0 mi Calm Calm - N/A   Overcast
7:51 AM 46.4 °F - 44.6 °F 93% 30.36 in 10.0 mi Calm Calm - N/A   Overcast
7:56 AM 46.0 °F - 46.0 °F 100% 30.33 in 8.0 mi Calm Calm - N/A   Overcast
8:32 AM 48.2 °F - 46.4 °F 93% 30.37 in 10.0 mi Calm Calm - N/A   Overcast
8:56 AM 48.0 °F - 46.9 °F 96% 30.32 in 10.0 mi SE 4.6 mph - N/A   Overcast
9:56 AM 51.1 °F - 46.9 °F 86% 30.31 in 10.0 mi Variable 3.5 mph - N/A   Overcast
10:11 AM 51.8 °F - 46.4 °F 82% 30.33 in 10.0 mi SW 3.5 mph - N/A   Overcast
10:56 AM 52.0 °F - 46.9 °F 83% 30.30 in 10.0 mi Calm Calm - N/A   Overcast
11:56 AM 54.0 °F - 48.0 °F 80% 30.29 in 10.0 mi Calm Calm - N/A   Mostly Cloudy
12:56 PM 55.0 °F - 48.0 °F 77% 30.26 in 10.0 mi Calm Calm - N/A   Overcast
1:56 PM 54.0 °F - 46.9 °F 77% 30.25 in 10.0 mi Calm Calm - N/A   Scattered Clouds
2:56 PM 57.0 °F - 48.0 °F 72% 30.22 in 10.0 mi Variable 3.5 mph - N/A   Mostly Cloudy
3:56 PM 55.0 °F - 46.9 °F 74% 30.20 in 10.0 mi Variable 3.5 mph - N/A   Overcast
4:56 PM 55.9 °F - 46.9 °F 72% 30.17 in 10.0 mi Variable 3.5 mph - N/A   Overcast
5:56 PM 55.9 °F - 48.0 °F 75% 30.14 in 10.0 mi Variable 3.5 mph - N/A   Scattered Clouds
6:56 PM 55.0 °F - 48.9 °F 80% 30.13 in 10.0 mi Calm Calm - N/A   Scattered Clouds
7:56 PM 53.1 °F - 48.0 °F 83% 30.12 in 10.0 mi Variable 3.5 mph - N/A   Clear
8:56 PM 50.0 °F - 46.0 °F 86% 30.11 in 10.0 mi Variable 3.5 mph - N/A   Clear
10:56 PM 46.9 °F - 45.0 °F 93% 30.08 in 10.0 mi Calm Calm - N/A   Clear
11:56 PM 45.0 °F - 44.1 °F 97% 30.06 in 10.0 mi Calm Calm - N/A   Clear